Location: Unspecified
(54.1780°N, 0.0000°E)
Time: 00:44:13
(UTC+00:00)

Altair - Pass Details

Date: 24 June 2019
Orbit: 1501 x 1683 km, 47.2° (Epoch: 19 August)

Event Time Altitude Azimuth Distance (km) Brightness Sun altitude
Rises 17:39:04 0° 188° (S) 4,672 10.0 22.1°
Reaches altitude 10° 17:43:10 10° 173° (S) 3,720 9.4 21.5°
Maximum altitude 17:49:16 19° 131° (SE) 3,083 8.7 20.7°
Drops below altitude 10° 17:55:28 10° 91° (E) 3,824 9.1 19.8°
Sets 17:59:45 0° 75° (ENE) 4,846 9.6 19.2°
